Regional Weather Roundup
Issued by NWS

Home | Current Version | Previous Version | Text Only | Print | Product List | Glossary On
Versions: 1 2 3 4 5 6 7 8 9 10 11 12 13 14 15 16 17 18 19 20 21 22 23 24 25 26 27 28 29 30 31 32 33 34 35 36 37 38 39 40 41 42 43 44 45 46 47 48 49 50
000
ASCA42 TJSJ 260911
RWRPR
PUERTO RICO/U.S. VIRGIN ISLANDS HOURLY WEATHER ROUNDUP
NATIONAL WEATHER SERVICE SAN JUAN PR
500 AM AST WED NOV 26 2014

PRZ001-004-261000-
PUERTO RICO

CITY           SKY/WX    TMP DP  RH WIND       PRES   REMARKS
SAN JUAN LMM   PTCLDY    75  73  94 SE5       29.98R
CEIBA          CLOUDY    77  73  88 S5        30.00R
$$

PRZ006-007-261000-
U.S. VIRGIN ISLANDS

CITY           SKY/WX    TMP DP  RH WIND       PRES   REMARKS
CHARLOTTE AMA  PTCLDY    77  73  88 E10       29.96R
CHRISTIANSTED  CLEAR    N/A N/A N/A NE9       29.96R
$$

HOURLY WEATHER ROUNDUP FOR THE NEWS MEDIA

CITY           SKY/WX    TMP DP  RH WIND       PRES   REMARKS
MIAMI          MOCLDY    79  76  90 S8        29.93S
NEW YORK       CLOUDY    50  27  40 N17       30.15F
NEWARK         CLOUDY    47  32  56 N8        30.17F
CHICAGO        PTCLDY    19  15  84 NE3       30.17S
HARTFORD       CLOUDY    47  30  51 CALM      30.18R
BOSTON         CLOUDY    47  29  49 W9        30.21R
DALLAS         PTCLDY    47  31  53 SW6       30.07R
PHILADELPHIA   CLOUDY    50  31  48 N16       30.09F



USA.gov is the U.S. government's official web portal to all federal, state and local government web resources and services.